Regional Weather Roundup
Issued by NWS

Home | Current Version | Previous Version | Text Only | Print | Product List | Glossary On
Versions: 1 2 3 4 5 6 7 8 9 10 11 12 13 14 15 16 17 18 19 20 21 22 23 24 25 26 27 28 29 30 31 32 33 34 35 36 37 38 39 40 41 42 43 44 45 46 47 48 49 50
000
ASUS44 KMEG 131710
RWRTN
TENNESSEE HOURLY STATE WEATHER ROUNDUP
NATIONAL WEATHER SERVICE MEMPHIS TN
1100 AM CST WED DEC 13 2017

TNZ002-004-019-021-049-052-054-088>092-131800-
WEST TENNESSEE

CITY           SKY/WX    TMP DP  RH WIND       PRES   REMARKS
MEMPHIS INTL   SUNNY     49  19  30 S18G28    29.93F
NWS MEMPHIS      N/A     47 N/A N/A MISG        N/A
JACKSON        SUNNY     48  19  31 SW18G25   29.92F
DYERSBURG      SUNNY     47  22  37 S8G18     29.88F
SOMERVILLE     SUNNY     48  19  32 SW17G30   29.91F
COVINGTON      SUNNY     48  19  32 SW22      29.90F
UNION CITY     SUNNY     45  21  39 S14G25    29.85F
BOLIVAR        SUNNY     46  19  34 S13G21    29.93F
PARIS          SUNNY     45  18  33 SW23      29.85F
HUNTINGDON     SUNNY     46  18  31 SW13G21   29.87F
LEXINGTON      SUNNY     45  19  36 SW21G29   29.92F
SELMER         SUNNY     45  18  33 SW9G22    29.94F
SAVANNAH       SUNNY     46  19  34 SW16G24   29.95F
$$

TNZ008-025-027-028-033-062-065-066-131800-
NORTH MIDDLE TENNESSEE

CITY           SKY/WX    TMP DP  RH WIND       PRES   REMARKS
NASHVILLE      MOSUNNY   42  12  29 S14G20    29.93F
PORTLAND       SUNNY     41  12  30 S22       29.86F
CLARKSVILLE    SUNNY     43  11  27 SW16G28   29.86F
SMYRNA         SUNNY     42  13  30 S10G21    29.94F
COOKEVILLE     SUNNY     37   9  30 S13       29.92F WCI  29
GALLATIN       SUNNY     41  10  28 S8G18     29.93F
CROSSVILLE     SUNNY     35   7  31 S8        29.91F WCI  29
$$

TNZ061-075-076-078-094-096-097-131800-
SOUTH MIDDLE TENNESSEE

CITY           SKY/WX    TMP DP  RH WIND       PRES   REMARKS
FAYETTEVILLE   SUNNY     41  12  30 S14       29.97F
TULLAHOMA      SUNNY     39  10  30 S13       29.95F WCI  32
WINCHESTER     SUNNY     41   9  26 S9        29.98F
MCMINNVILLE    SUNNY     39   9  28 SW13G18   29.94F WCI  32
COLUMBIA       SUNNY     43  14  31 SW15G23   29.93F
SHELBYVILLE    SUNNY     41  12  30 SW14G23   29.95F
$$

TNZ017-018-042-046-047-131800-
NORTHEAST TENNESSEE

CITY           SKY/WX    TMP DP  RH WIND       PRES   REMARKS
TRI CITIES     MOSUNNY   31   7  36 S10       29.92F WCI  22
ELIZABETHTON   SUNNY     32   3  29 SW6G13    29.92F WCI  26
$$

TNZ012-013-036-069-073-074-131800-
CENTRAL EAST TENNESSEE

CITY           SKY/WX    TMP DP  RH WIND       PRES   REMARKS
KNOXVILLE      MOSUNNY   38  10  31 SW14      29.96F WCI  30
OAK RIDGE      SUNNY     35   9  33 SW7       29.98F WCI  29
DOWNTOWN KNOXV SUNNY     37   9  30 SW12G17   29.97F WCI  30
GATLINBURG     SUNNY     37  10  32 VRB7      29.94F WCI  32
MORRISTOWN     SUNNY     36   1  23 W8        29.92F WCI  29
JACKSBORO      SUNNY     36   7  30 VRB6      29.96F WCI  31
$$

TNZ083-085-099-131800-
SOUTHEAST TENNESSEE

CITY           SKY/WX    TMP DP  RH WIND       PRES   REMARKS
CHATTANOOGA    SUNNY     38   8  29 S7        30.01F WCI  33
DAYTON         SUNNY     36  14  41 S7        29.99F WCI  30
$$

SKY/WX REPORTED AS FAIR MEANS FEW OR NO CLOUDS BELOW
12 THOUSAND FEET.





USA.gov is the U.S. government's official web portal to all federal, state and local government web resources and services.